Wind_Speed
3 3 3 4 5 6 7 9 11 12 13 13 14 15 16 18 19 20 20 20 20 21 21 22 24 25 27 28 29 29 30 30 30 30 29 29 28 27 26 26 25 24 24 24 24 25 25 24 23
4 3 3 2 2 4 4 6 8 9 10 11 12 13 15 16 17 18 19 19 18 19 20 21 23 24 26 28 29 30 31 32 32 32 32 31 31 31 30 29 28 27 27 27 27 28 28 28 28
6 6 5 5 2 1 1 2 3 6 8 10 12 12 13 13 14 15 15 16 16 17 18 20 22 23 25 27 28 30 31 32 33 33 33 33 33 33 33 32 31 31 30 30 30 31 31 31 31
8 7 6 5 4 3 2 2 4 6 7 9 10 11 12 13 13 14 14 16 17 18 20 21 23 25 26 27 29 30 32 33 34 34 35 35 35 35 35 35 34 33 33 32 32 33 33 34 34
8 7 6 5 4 4 5 5 6 8 8 9 10 11 13 14 15 16 17 18 20 22 23 24 26 27 29 30 31 32 34 35 36 37 37 37 37 37 37 37 37 36 36 35 35 35 35 36 36
8 7 6 6 6 6 7 8 8 9 9 10 11 13 14 15 17 18 20 21 23 24 26 28 30 31 33 34 36 37 38 38 39 40 40 40 41 41 40 40 40 39 39 38 38 38 38 38 38
8 7 8 8 8 8 9 9 10 10 11 11 13 14 15 17 18 20 21 23 24 26 27 29 31 33 35 36 38 39 40 42 43 43 44 44 44 45 45 44 43 43 42 41 41 41 40 40 40
10 9 10 10 10 9 9 10 11 12 14 15 16 17 18 19 20 21 23 24 26 27 29 31 32 34 36 37 38 40 41 42 43 44 45 46 47 47 48 48 48 47 46 45 44 44 43 43 42
11 10 10 9 9 8 9 10 11 12 14 15 17 18 19 20 21 23 24 26 27 29 31 32 34 36 37 39 40 41 43 44 45 45 45 45 46 47 48 48 49 49 49 48 47 47 46 46 45
10 10 10 10 9 9 9 10 11 12 13 14 15 17 18 20 22 24 26 28 30 32 34 36 38 39 40 42 43 44 45 46 47 48 48 48 48 47 48 48 48 49 49 49 49 49 48 48 47
11 11 11 11 11 12 12 12 12 11 12 14 16 18 21 23 26 28 31 33 36 38 41 43 45 46 48 49 49 50 51 51 51 51 51 51 51 51 50 50 50 50 50 50 50 50 50 50 50
12 12 12 12 12 12 12 12 13 14 15 18 20 23 26 29 32 34 37 40 42 44 47 49 51 52 53 55 56 56 57 57 57 57 56 55 55 54 53 53 53 52 52 52 51 51 51 51 51
13 13 12 12 12 12 12 13 15 17 20 23 25 28 30 33 35 38 41 44 47 49 52 54 56 58 60 61 62 62 63 63 63 63 62 61 60 59 58 57 57 56 55 55 54 54 53 52 52
13 12 11 11 12 13 14 16 18 20 23 26 29 31 34 37 40 44 47 50 53 56 58 61 63 65 67 69 70 70 70 70 70 69 68 67 66 64 63 63 62 60 59 59 58 58 57 56 54
12 11 11 12 13 14 16 18 21 23 27 30 33 36 39 42 46 49 53 56 59 62 65 67 70 72 74 76 77 78 78 78 78 76 75 74 72 70 68 67 66 65 64 63 62 61 60 59 58
11 11 13 14 16 18 20 21 24 28 32 35 39 42 45 49 52 56 59 62 65 68 71 73 76 78 80 82 82 82 82 82 81 81 81 80 78 77 74 72 70 69 68 67 66 65 64 63 62
10 12 14 17 20 22 25 27 30 33 36 40 44 48 51 55 58 61 64 68 71 73 76 78 80 83 84 84 83 83 81 80 80 81 82 82 82 81 79 77 75 73 71 70 70 69 68 66 66
12 15 18 21 24 26 29 31 34 36 40 44 48 53 56 59 62 66 69 72 75 77 79 81 82 82 81 79 77 75 73 72 71 73 76 79 82 83 83 81 79 78 76 74 73 72 71 70 68
15 18 21 24 27 30 31 34 36 40 44 49 53 57 60 64 67 70 72 75 77 79 80 80 78 75 71 67 63 60 57 54 53 55 59 65 73 79 84 85 83 82 80 78 77 75 74 73 72
18 21 25 27 30 33 35 36 38 43 48 52 56 61 65 68 71 73 75 77 78 78 77 73 69 64 60 56 53 50 47 45 43 43 45 48 54 64 74 82 86 86 84 82 81 79 78 76 75
21 25 28 31 32 33 38 40 42 47 52 56 61 65 69 71 73 75 76 77 76 74 69 64 59 56 53 51 49 46 45 44 42 41 41 41 43 47 56 67 77 84 87 86 85 84 82 80 78
25 28 31 32 34 36 40 45 47 52 57 61 65 69 71 73 75 76 76 75 72 67 61 57 54 53 51 49 47 46 44 42 41 40 39 38 38 39 42 49 60 70 79 85 87 87 86 85 82
27 30 32 35 37 40 44 49 53 57 61 65 68 71 73 74 75 76 74 71 67 61 56 54 53 52 51 50 49 47 45 43 41 39 37 36 35 35 36 38 43 53 63 72 81 86 88 88 87
28 31 35 38 42 44 48 52 57 60 64 68 71 72 74 75 75 75 72 67 62 57 55 54 54 53 52 52 51 50 48 46 44 42 39 37 34 34 34 33 34 39 46 55 65 73 81 86 88
29 33 38 43 46 47 50 54 60 63 67 70 72 74 75 76 75 72 68 62 58 56 55 55 56 56 55 55 54 52 51 49 47 45 42 39 36 34 33 33 33 34 36 41 49 57 65 73 81
30 33 37 41 45 49 53 57 62 66 68 71 73 74 75 75 73 69 64 60 58 57 57 58 59 59 58 57 56 54 53 51 50 48 45 43 40 36 34 33 33 33 34 35 39 44 50 58 66
32 36 38 42 47 53 56 60 64 67 70 71 73 75 75 74 70 66 62 60 59 60 61 62 61 61 59 57 55 53 51 50 49 48 47 46 44 41 38 35 34 34 34 34 35 38 42 46 52
32 37 41 44 49 55 59 63 65 68 70 72 74 74 74 71 67 64 62 61 62 63 64 64 62 59 55 52 50 48 47 46 45 45 45 45 45 44 42 40 37 36 35 35 36 37 38 40 43
34 38 41 45 50 55 61 64 66 69 71 73 74 75 73 69 65 63 63 64 65 65 64 60 56 52 49 47 46 45 45 44 44 43 42 42 42 43 44 43 42 40 39 38 37 38 38 39 41
34 38 43 48 53 56 61 65 68 70 71 73 74 74 70 67 64 64 64 65 65 63 59 54 50 48 47 46 46 45 45 44 44 43 43 42 41 41 42 43 43 43 43 41 40 40 40 40 41
Wind_Direction
332 315 307 291 284 278 269 258 251 251 252 256 261 264 267 270 273 276 274 272 268 265 264 263 262 261 261 262 262 262 263 263 262 262 262 262 261 260 259 259 257 256 253 250 246 243 241 240 241
37 36 16 357 311 303 283 265 257 266 271 275 277 279 280 281 284 284 284 283 279 275 272 268 265 263 262 262 263 263 264 264 263 262 262 261 261 260 259 258 257 255 253 251 248 245 243 242 242
57 55 50 46 50 347 285 282 289 292 294 297 299 301 300 299 297 293 291 288 284 280 276 273 270 268 266 264 264 264 264 264 263 263 262 262 261 261 260 258 256 255 253 251 249 247 244 243 242
64 58 57 49 56 63 48 10 345 328 321 318 316 315 313 311 307 302 296 292 288 283 279 277 275 273 271 269 268 267 266 265 264 263 262 262 262 261 261 260 258 256 254 251 249 248 246 243 242
65 59 60 49 49 46 36 17 360 353 345 334 325 321 315 311 307 303 299 295 290 287 284 282 280 277 275 273 271 269 267 266 265 264 263 262 261 260 260 259 258 257 255 252 250 248 246 244 242
64 56 51 41 35 28 18 5 356 349 340 332 324 319 313 310 307 304 301 297 294 291 289 286 284 282 280 277 275 272 270 268 266 265 264 263 261 260 259 258 257 256 255 253 251 249 247 245 243
62 53 46 39 34 25 14 3 354 347 342 336 331 326 322 319 315 312 309 306 303 300 297 293 290 287 285 282 279 276 274 271 269 266 264 263 262 261 259 258 256 255 254 253 252 250 248 246 244
57 53 50 45 38 26 15 3 355 347 343 340 337 333 329 326 323 319 317 313 310 306 303 299 296 292 289 286 283 280 278 275 272 270 267 265 262 261 260 259 257 255 253 252 251 250 249 248 246
54 51 47 41 33 23 11 1 354 347 344 342 339 337 334 331 327 323 319 315 311 307 303 300 296 293 290 287 285 282 279 277 275 272 270 267 265 262 260 259 257 255 253 252 251 250 249 249 247
47 42 39 36 35 31 25 19 10 2 356 350 345 340 335 329 324 319 314 310 306 303 300 297 294 291 289 287 285 282 280 277 275 273 271 269 266 263 260 258 256 254 253 251 250 249 249 248 248
47 48 50 50 49 48 44 39 29 17 4 353 343 336 329 323 318 314 310 306 303 301 299 296 294 292 289 287 284 282 280 277 275 273 271 269 267 265 262 259 256 254 253 251 250 249 248 246 246
62 63 62 59 56 50 41 31 18 5 353 346 338 332 326 321 317 313 309 306 303 300 298 296 293 291 289 287 284 282 279 277 274 272 270 268 266 264 262 260 257 255 253 251 250 249 248 247 245
71 68 63 56 46 35 23 11 1 352 346 339 333 327 322 317 313 309 305 302 300 298 296 294 293 291 289 287 285 282 280 277 275 272 269 267 265 263 261 259 257 256 253 252 250 249 248 247 246
65 60 50 38 27 17 7 358 352 345 338 332 326 321 316 312 309 306 303 301 300 298 297 295 294 292 290 288 286 284 281 278 275 272 269 267 264 261 259 257 255 254 253 252 250 249 247 246 245
54 44 31 20 10 3 356 349 342 335 329 324 320 316 313 310 307 305 303 302 300 298 297 296 295 293 292 289 287 285 282 278 275 272 269 266 264 261 258 256 254 252 251 250 249 248 247 246 244
39 23 12 1 354 348 342 338 332 328 324 321 317 314 312 309 308 306 304 303 302 301 300 299 297 295 293 291 289 286 283 279 276 272 269 266 263 261 258 255 253 251 249 248 248 247 246 245 244
19 5 354 346 341 338 334 331 328 325 321 319 316 314 311 310 309 307 307 306 305 304 303 302 300 298 296 295 293 291 288 284 279 273 269 265 262 259 257 255 253 251 249 248 246 246 245 244 244
356 347 342 337 335 333 330 329 327 323 320 318 316 314 312 311 310 310 309 309 309 308 307 305 303 301 301 300 299 298 296 292 286 280 272 266 261 257 255 254 252 250 248 247 246 245 244 243 243
339 335 333 332 332 330 328 327 326 323 320 318 317 316 315 314 313 313 313 313 313 311 309 307 306 306 306 306 306 305 303 300 295 287 279 271 263 258 254 251 250 249 248 246 245 244 243 242 242
329 328 329 329 329 328 326 326 325 322 321 320 319 318 318 317 317 317 316 316 314 312 310 309 309 310 310 311 311 310 309 307 305 299 290 280 271 262 256 252 249 247 246 245 244 243 242 241 240
325 327 328 328 328 327 324 325 327 324 324 323 321 320 319 319 319 319 318 317 315 313 312 311 312 312 312 312 313 313 312 310 309 307 304 295 284 273 262 254 250 248 246 245 244 243 242 240 239
326 326 326 326 327 329 327 326 329 328 326 325 324 323 322 322 322 321 320 318 316 315 314 314 314 313 312 312 311 311 310 309 308 306 305 301 295 286 276 264 254 249 246 245 243 243 242 240 239
326 326 325 326 328 330 330 331 331 329 328 327 326 325 325 325 324 323 322 319 317 317 316 315 315 314 312 311 309 308 308 308 307 305 305 303 298 293 285 276 265 255 249 246 244 243 242 241 240
326 325 326 328 329 333 333 333 331 331 330 329 327 327 327 327 326 325 323 321 319 318 318 317 317 315 313 311 309 306 305 303 302 302 301 300 297 294 289 282 273 264 256 250 246 244 243 242 241
327 328 329 330 332 334 333 334 333 332 332 330 329 329 329 329 328 326 324 322 321 320 320 319 318 316 314 312 309 306 304 301 299 297 295 294 292 289 286 283 277 270 262 255 250 246 244 243 243
327 328 330 331 331 332 335 336 334 334 333 331 331 331 331 331 329 327 325 324 323 322 322 320 319 317 315 313 310 307 304 301 298 295 292 290 287 284 280 277 274 271 266 259 252 247 245 244 243
327 328 330 331 332 334 336 335 334 335 334 333 333 333 334 332 330 328 327 326 325 324 323 322 320 318 317 315 313 311 308 305 301 296 292 288 284 281 278 273 269 266 263 259 255 250 246 243 242
328 329 331 334 334 334 335 336 337 336 335 335 335 335 335 333 331 330 328 328 327 326 324 324 323 323 322 321 320 319 317 314 310 304 298 292 286 280 276 272 268 264 260 257 254 251 248 245 243
330 330 332 333 335 336 335 336 338 337 336 337 337 337 336 334 333 331 330 329 328 327 327 328 329 330 330 330 328 326 324 321 317 313 308 301 293 285 277 271 266 262 259 255 253 251 248 247 245
329 331 333 334 336 336 335 336 338 338 338 339 339 338 337 335 334 332 331 330 330 330 332 334 336 335 335 333 331 329 327 324 321 317 312 307 301 293 284 275 268 262 257 254 251 249 248 247 247
Height
5861 5861 5861 5862 5863 5863 5862 5863 5863 5863 5864 5864 5864 5864 5863 5863 5863 5865 5862 5860 5859 5858 5857 5856 5856 5855 5854 5854 5854 5854 5854 5853 5853 5852 5852 5851 5851 5850 5850 5850 5850 5849 5850 5850 5850 5850 5851 5852 5852
5860 5860 5861 5862 5862 5862 5862 5862 5862 5862 5862 5862 5862 5862 5862 5861 5860 5858 5857 5856 5855 5853 5852 5851 5850 5849 5849 5848 5848 5848 5847 5847 5847 5846 5846 5845 5845 5844 5844 5844 5844 5843 5844 5844 5844 5845 5845 5846 5847
5860 5860 5862 5861 5860 5861 5862 5861 5861 5861 5861 5861 5860 5860 5859 5858 5856 5855 5853 5852 5851 5849 5848 5847 5846 5845 5844 5843 5842 5842 5841 5841 5840 5839 5839 5838 5838 5838 5837 5837 5837 5837 5837 5837 5838 5838 5839 5840 5841
5861 5861 5862 5861 5860 5861 5861 5861 5861 5861 5861 5860 5859 5858 5856 5855 5854 5853 5851 5849 5848 5846 5845 5843 5842 5841 5839 5838 5837 5836 5835 5834 5833 5832 5832 5831 5831 5831 5830 5830 5830 5830 5830 5830 5831 5831 5832 5834 5835
5861 5862 5862 5861 5861 5862 5861 5861 5861 5861 5860 5859 5858 5857 5855 5854 5853 5851 5849 5847 5845 5843 5841 5840 5838 5836 5835 5833 5832 5830 5829 5828 5826 5825 5824 5824 5823 5823 5822 5822 5822 5822 5823 5823 5824 5824 5825 5826 5828
5863 5863 5863 5862 5863 5862 5861 5861 5860 5859 5859 5858 5857 5857 5854 5853 5851 5849 5847 5845 5842 5840 5838 5836 5833 5831 5829 5827 5825 5824 5822 5820 5819 5818 5816 5815 5815 5814 5813 5813 5813 5814 5814 5815 5816 5816 5817 5819 5820
5864 5864 5863 5863 5863 5862 5862 5860 5859 5858 5858 5857 5856 5855 5852 5850 5848 5846 5843 5841 5838 5836 5833 5830 5828 5825 5823 5820 5818 5816 5813 5812 5810 5809 5807 5806 5805 5805 5804 5804 5804 5804 5805 5806 5807 5808 5809 5810 5812
5865 5866 5864 5864 5863 5863 5862 5860 5859 5857 5856 5855 5853 5852 5850 5848 5845 5843 5840 5837 5834 5831 5828 5825 5822 5819 5816 5813 5810 5807 5804 5802 5800 5798 5797 5796 5795 5794 5793 5793 5794 5794 5794 5795 5796 5798 5799 5801 5803
5867 5867 5865 5865 5864 5863 5862 5861 5859 5856 5855 5853 5851 5850 5847 5845 5842 5839 5836 5833 5829 5826 5822 5819 5815 5811 5808 5804 5801 5798 5795 5792 5790 5788 5786 5785 5784 5783 5782 5782 5782 5783 5783 5784 5786 5787 5789 5791 5793
5868 5867 5866 5865 5864 5863 5862 5861 5859 5857 5855 5853 5851 5848 5845 5842 5839 5836 5832 5828 5824 5820 5816 5811 5807 5803 5799 5795 5791 5788 5784 5782 5779 5776 5774 5773 5772 5771 5770 5770 5771 5771 5772 5773 5774 5776 5777 5780 5782
5867 5866 5865 5864 5864 5863 5861 5860 5858 5856 5854 5852 5849 5846 5843 5839 5836 5832 5827 5823 5818 5814 5809 5803 5798 5793 5789 5784 5780 5776 5772 5769 5766 5764 5762 5760 5759 5758 5758 5758 5758 5759 5760 5761 5762 5763 5765 5767 5769
5868 5867 5866 5865 5863 5862 5861 5859 5857 5855 5853 5850 5847 5844 5840 5836 5831 5827 5822 5816 5811 5805 5800 5794 5788 5782 5777 5771 5767 5762 5758 5755 5752 5749 5747 5746 5745 5744 5743 5744 5744 5745 5747 5748 5749 5751 5753 5755 5757
5869 5868 5867 5865 5864 5862 5861 5859 5857 5854 5851 5848 5845 5840 5836 5831 5826 5820 5814 5808 5802 5795 5789 5782 5775 5769 5762 5757 5751 5746 5742 5738 5735 5732 5730 5729 5728 5728 5728 5728 5729 5730 5732 5734 5736 5737 5740 5742 5745
5871 5869 5868 5866 5865 5862 5860 5858 5856 5852 5849 5845 5841 5836 5831 5825 5819 5812 5805 5798 5791 5783 5776 5768 5761 5753 5746 5739 5733 5727 5723 5718 5715 5712 5711 5710 5709 5709 5710 5711 5712 5713 5715 5718 5720 5723 5725 5728 5731
5872 5871 5869 5867 5865 5863 5861 5858 5854 5850 5846 5841 5836 5830 5824 5817 5810 5802 5795 5787 5779 5770 5762 5753 5745 5736 5728 5720 5713 5706 5701 5696 5692 5690 5688 5687 5687 5688 5690 5691 5693 5695 5697 5700 5703 5706 5710 5713 5717
5873 5872 5870 5867 5864 5862 5861 5857 5852 5847 5842 5836 5829 5823 5816 5808 5800 5792 5783 5774 5764 5755 5746 5736 5726 5717 5707 5698 5689 5682 5676 5670 5667 5664 5663 5663 5663 5665 5667 5669 5672 5675 5678 5681 5685 5689 5693 5697 5701
5874 5872 5869 5867 5863 5860 5857 5853 5848 5842 5836 5829 5822 5815 5807 5798 5789 5780 5770 5760 5749 5739 5728 5717 5705 5694 5683 5673 5663 5655 5648 5642 5638 5636 5635 5636 5637 5639 5642 5645 5649 5653 5657 5661 5665 5670 5674 5679 5684
5873 5871 5868 5865 5861 5857 5853 5848 5843 5837 5830 5823 5815 5806 5797 5788 5778 5767 5756 5745 5732 5720 5707 5695 5682 5670 5660 5649 5640 5631 5622 5615 5610 5607 5606 5607 5609 5611 5615 5619 5624 5629 5634 5639 5644 5649 5655 5660 5666
5872 5869 5866 5862 5858 5853 5848 5844 5838 5831 5823 5815 5806 5797 5787 5776 5765 5754 5741 5729 5715 5702 5688 5675 5662 5650 5640 5631 5622 5614 5605 5597 5589 5583 5579 5578 5580 5582 5586 5592 5598 5604 5610 5616 5622 5628 5634 5640 5646
5870 5867 5863 5859 5854 5849 5843 5839 5833 5824 5816 5807 5797 5787 5776 5764 5752 5740 5726 5713 5699 5685 5670 5657 5645 5634 5625 5616 5607 5599 5592 5584 5577 5569 5563 5558 5556 5556 5558 5563 5570 5577 5584 5591 5598 5605 5612 5619 5626
5867 5863 5858 5854 5850 5845 5838 5833 5827 5817 5808 5798 5787 5776 5764 5752 5739 5726 5712 5698 5683 5668 5655 5643 5632 5622 5613 5604 5596 5588 5580 5572 5565 5558 5550 5544 5539 5536 5535 5537 5543 5549 5558 5566 5573 5580 5588 5597 5605
5863 5859 5854 5850 5845 5840 5833 5824 5819 5808 5798 5788 5776 5764 5751 5739 5725 5711 5697 5682 5667 5653 5641 5630 5620 5611 5602 5593 5586 5578 5571 5563 5556 5548 5541 5533 5527 5522 5519 5518 5520 5524 5531 5539 5548 5555 5564 5574 5583
5859 5854 5850 5844 5839 5834 5825 5817 5810 5799 5789 5778 5765 5752 5739 5725 5711 5696 5681 5666 5652 5640 5629 5619 5609 5600 5591 5582 5574 5567 5559 5552 5545 5538 5531 5525 5518 5512 5508 5506 5504 5506 5509 5515 5523 5531 5540 5549 5559
5855 5851 5845 5839 5833 5827 5818 5810 5801 5790 5779 5766 5753 5740 5726 5712 5697 5681 5666 5652 5639 5628 5618 5608 5598 5589 5579 5570 5562 5554 5547 5540 5533 5527 5521 5515 5509 5504 5499 5495 5493 5493 5494 5497 5502 5508 5516 5525 5535
5852 5846 5840 5832 5825 5820 5812 5802 5793 5780 5768 5755 5742 5728 5714 5699 5683 5668 5653 5640 5628 5618 5607 5597 5587 5577 5567 5557 5548 5540 5532 5526 5519 5514 5509 5504 5499 5495 5490 5486 5484 5482 5482 5483 5486 5490 5496 5503 5511
5847 5843 5837 5829 5821 5813 5804 5794 5784 5771 5758 5744 5731 5717 5702 5685 5669 5654 5640 5628 5618 5607 5596 5586 5575 5564 5553 5543 5534 5525 5517 5510 5504 5498 5493 5489 5486 5483 5480 5477 5474 5472 5471 5472 5473 5476 5480 5485 5491
5843 5837 5831 5824 5814 5804 5795 5787 5774 5761 5749 5735 5720 5705 5690 5673 5658 5643 5630 5618 5607 5596 5585 5573 5561 5550 5539 5528 5519 5510 5502 5494 5488 5482 5477 5473 5470 5468 5466 5465 5463 5462 5461 5461 5462 5464 5467 5470 5475
5839 5832 5825 5817 5808 5798 5788 5777 5766 5752 5738 5724 5709 5694 5678 5662 5647 5633 5620 5608 5596 5584 5572 5559 5547 5536 5525 5515 5506 5497 5489 5481 5474 5467 5462 5457 5454 5452 5450 5450 5450 5449 5449 5450 5450 5452 5454 5458 5461
5834 5827 5819 5812 5802 5791 5780 5772 5759 5744 5729 5714 5699 5683 5667 5651 5637 5623 5610 5598 5585 5572 5560 5548 5536 5526 5516 5506 5497 5488 5479 5471 5463 5455 5449 5443 5439 5435 5434 5433 5434 5434 5435 5437 5438 5440 5442 5445 5449
5830 5822 5815 5807 5796 5785 5774 5765 5748 5734 5719 5705 5689 5673 5657 5642 5628 5615 5602 5589 5575 5562 5550 5539 5528 5518 5509 5499 5490 5480 5471 5462 5453 5445 5438 5431 5425 5421 5418 5416 5416 5418 5419 5421 5424 5426 5429 5432 5435